Location: Unnamed
(51.8936°N, 11.0665°E)
Time: 13:23:13
(UTC+02:00)

XW-2C - Visible Passes

Search period start: 24 September 2021 00:00
Search period end: 04 October 2021 00:00
Orbit: 505 x 524 km, 97.5° (Epoch: 24 September)

Date Brightness Start Highest point End Pass type
(mag) Time Alt. Az. Time Alt. Az. Time Alt. Az.
24 Sep ? 06:30:05 10° NE 06:32:59 21° E 06:35:51 10° SE visible
25 Sep ? 06:15:34 10° NE 06:17:46 15° E 06:19:58 10° SE visible
26 Sep ? 06:01:50 10° ENE 06:02:32 10° E 06:03:15 10° E visible
27 Sep ? 19:39:50 10° WSW 19:41:39 13° W 19:43:29 10° WNW visible
30 Sep ? 06:33:42 10° NE 06:36:41 22° E 06:39:39 10° SE visible
01 Oct ? 06:19:05 10° NE 06:21:28 16° E 06:23:50 10° SE visible
02 Oct ? 06:05:00 10° ENE 06:06:14 11° E 06:07:27 10° ESE visible
03 Oct ? 19:43:52 10° WSW 19:45:21 12° W 19:46:49 10° WNW visible
